Tracking 20945 objects as of 8-Jul-2020
HD Live streaming from Space Station
objects crossing your sky now

FENGYUN 1C DEB

Track FENGYUN 1C DEB now!
10-day predictions


NORAD ID: 30648
Int'l Code: 1999-025APF
Perigee: 779.7 km
Apogee: 849.9 km
Inclination: 98.7 °
Period: 101.0 minutes
Semi major axis: 7185 km
RCS: 0.034 m2 (small)
Launch date: May 10, 1999
Source: People's Republic of China (PRC)
Launch site: Taiyaun Space Center, China (TSC)

Note: This is SATELLITE DEBRIS
aabbcc
Your satellite tracking list
Your tracking list is empty




NASA's NSSDC Master Catalog

Two Line Element Set (TLE):
1 30648U 99025APF 20189.90310956 +.00000583 +00000-0 +26335-3 0  9997
2 30648 098.7437 255.8590 0048850 193.9559 221.4767 14.25247831694758
Source of the keplerian elements: AFSPC